Location: La Comballaz
(46.3780°N, 7.0817°E)
Time: 19:54:50
(UTC+00:00)

N. Korean satellite - Pass Details

Date: 09 December 2021
Orbit: 446 x 492 km, 97.3° (Epoch: 18 January)

Event Time Altitude Azimuth Distance (km) Brightness Sun altitude
Rises 03:56:23 0° 28° (NNE) 2,460 10.5 -31.2°
Reaches altitude 10° 03:58:57 10° 50° (NE) 1,581 9.7 -30.8°
Maximum altitude 04:01:16 17° 93° (E) 1,209 9.3 -30.4°
Drops below altitude 10° 04:03:33 10° 136° (SE) 1,574 9.7 -30.0°
Sets 04:06:06 0° 157° (SSE) 2,444 10.5 -29.5°
